Regional Weather Roundup
Issued by NWS

Home | Current Version | Previous Version | Graphics & Text | Print | Product List | Glossary Off
Versions: 1 2 3 4 5 6 7 8 9 10 11 12 13 14 15 16 17 18 19 20 21 22 23 24 25 26 27 28 29 30 31 32 33 34 35 36 37 38 39 40 41 42 43 44 45 46 47 48 49 50

000
ASUS43 KDMX 300408
RWRIA

WEATHER ROUNDUP FOR IOWA
NATIONAL WEATHER SERVICE DES MOINES IA
1100 PM CDT MON AUG 29 2016

NOTE: "FAIR" INDICATES FEW OR NO CLOUDS BELOW 12,000 FEET WITH NO
SIGNIFICANT WEATHER AND/OR OBSTRUCTIONS TO VISIBILITY.

* - THESE STATIONS ARE NOT NWS STATIONS...THUS NOT UNDER NWS
QUALITY CONTROL.  THEY ALSO DO NOT REPORT WEATHER SUCH
AS PRECIPITATION OR FOG.

IAZ001>003-012>014-020>022-031>034-043>046-300500-
   NORTHWEST IOWA

CITY           SKY/WX    TMP DP  RH WIND       PRES   REMARKS
CARROLL *      DRIZZLE   70  70 100 SW5       30.21S
CHEROKEE *     CLOUDY    70  69  94 S5        30.22S
DENISON *      CLOUDY    68  66  94 CALM      30.21R
LE MARS *      CLOUDY    72  66  83 SW9G16    30.22R
ORANGE CITY *  CLOUDY    72  68  88 SW7       30.21F
SHELDON *      CLOUDY    73  72  94 S15       30.19S
SIOUX CITY     LGT RAIN  71  67  87 SW7       30.20F
SPENCER        CLOUDY    71  68  90 SW3       30.21R
STORM LAKE *   CLOUDY    70  66  88 W10       30.23R
$$

IAZ055>058-069>071-079>083-090>094-300500-
   SOUTHWEST IOWA

CITY           SKY/WX    TMP DP  RH WIND       PRES   REMARKS
ATLANTIC *     DRIZZLE   70  68  94 CALM      30.24R
AUDUBON *      RAIN      70  66  88 SW5       30.24S
CLARINDA *       N/A     72  70  94 MISG      30.24S
COUNCIL BLFS * LGT RAIN  70  70 100 S6        30.22F
CRESTON *      CLOUDY    70  68  94 N8        30.22R
HARLAN  *      CLOUDY    70  70 100 SE5       30.26S
LAMONI         CLOUDY    72  70  93 E6        30.20R
RED OAK *      LGT RAIN  70  68  94 NW6G13    30.23S
SHENANDOAH *   LGT RAIN  70 -38   1 N7        30.22F
$$

IAZ047>049-059>061-072>074-084-300500-
   CENTRAL IOWA

CITY           SKY/WX    TMP DP  RH WIND       PRES   REMARKS
AMES           CLOUDY    68  68 100 NW3       30.19R
ANKENY *         N/A    N/A N/A N/A MISG        N/A
BOONE *        CLOUDY    70  68  94 SW5       30.20S
CHARITON *       N/A     73  70  88 MISG      30.20S
DES MOINES     CLOUDY    73  71  93 W5        30.19R
GRINNELL*      CLOUDY    69  66  90 CALM      30.18S
KNOXVILLE *    CLOUDY    72  70  94 W9G16     30.18R
MARSHALLTOWN   CLOUDY    68  68 100 NW3       30.18S
NEWTON *       CLOUDY    70  70 100 SW3       30.17S
PELLA *        CLOUDY    69  67  92 CALM      30.19R
PERRY *        CLOUDY    69  69 100 CALM      30.22R
$$

IAZ004>006-015-016-023>025-035-036-300500-
   NORTH CENTRAL IOWA

CITY           SKY/WX    TMP DP  RH WIND       PRES   REMARKS
ALGONA *       CLOUDY    72  68  88 S7        30.21R
ESTHERVILLE    CLOUDY    69  69 100 S5        30.20R
FORT DODGE *   MOCLDY    70  66  88 S3        30.22R
MASON CITY     CLOUDY    67  66  97 S3        30.22R
FOREST CITY *    N/A    N/A N/A N/A MISG        N/A
WEBSTER CITY * CLOUDY    68  68 100 S3        30.19R
IOWA FALLS *     N/A     69  67  95 CALM      30.21R
$$

IAZ007>011-017>019-026>030-037>042-050>054-066-300500-
   NORTHEAST IOWA

CITY           SKY/WX    TMP DP  RH WIND       PRES   REMARKS
CEDAR RAPIDS   MOCLDY    72  72 100 CALM      30.18R
CHARLES CITY * CLOUDY    70  70 100 S3        30.21R FOG
CLINTON *      CLOUDY    69  69 100 N6        30.18S
DECORAH *      CLOUDY    72  72 100 S5        30.19R FOG
DUBUQUE        PTCLDY    69  67  93 CALM      30.19F
MONTICELLO *   PTCLDY    70  70 100 CALM      30.18S
OELWEIN *      CLOUDY    70  68  94 NW6       30.20S
WATERLOO       CLOUDY    69  67  93 N3        30.18R
$$

IAZ064-065-067-068-078-300500-
   EAST CENTRAL IOWA

CITY           SKY/WX    TMP DP  RH WIND       PRES   REMARKS
DAVENPORT      PTCLDY    71  69  93 E5        30.17S FOG
IOWA CITY      PTCLDY    73  70  90 N7        30.19R
MT. PLEASANT * CLOUDY    74  74 100 NW5       30.17S
QUAD CITIES    MOCLDY    73  70  90 E6        30.16S
$$

IAZ062-063-075>077-085>089-095>099-300500-
   SOUTHEAST IOWA

CITY           SKY/WX    TMP DP  RH WIND       PRES   REMARKS
BURLINGTON     MOCLDY    72  72 100 NW6       30.15F
FAIRFIELD *    CLOUDY    70  68  94 SE5       30.16R
FORT MADISON * PTCLDY    72  70  94 CALM      30.17S
KEOKUK *       CLEAR     73  72  94 CALM      30.15S
OSKALOOSA *      N/A     68  66  93 S3        30.16R
CENTERVILLE *    N/A     70  68  94 CALM      30.20R
OTTUMWA        MOCLDY    68  65  90 S5        30.15S
WASHINGTON *   LGT RAIN  73  72  94 E5        30.18S
$$

ABBREVIATIONS USED IN REMARKS
   TC - TEMPERATURES IN CELSIUS
  WCI - WIND CHILL INDEX
   HX - HEAT INDEX
  VSB - VISIBILITY
$$





USA.gov is the U.S. government's official web portal to all federal, state and local government web resources and services.